• In United Kingdom
  • List of Countries
  • For 7 days
  • Water Temperature
  • Satellite Maps
  • Weather Map
  • Weather Widgets
  • user-avatar
    Login

    Hourly Weather Cepeleutsi

    Today, 19 July, Thursday

    Time Temperature Precipitation Wind Pressure Humidity
    00:00 +18°C° 0 mm 2 mps 733 mmHg 92%
    01:00 +18°C° 0 mm 2 mps 733 mmHg 93%
    02:00 +18°C° 0 mm 2 mps 732 mmHg 95%
    03:00 +18°C° 0 mm 2 mps 732 mmHg 95%
    04:00 +18°C° 0 mm 2 mps 732 mmHg 95%
    05:00 +18°C° 0 mm 2 mps 733 mmHg 95%
    06:00 +19°C° 0 mm 3 mps 733 mmHg 92%
    07:00 +21°C° 0 mm 3 mps 733 mmHg 88%
    08:00 +23°C° 0 mm 4 mps 733 mmHg 84%
    09:00 +25°C° 0.8 mm 4 mps 733 mmHg 79%
    10:00 +26°C° 0.8 mm 4 mps 733 mmHg 74%
    11:00 +27°C° 0.8 mm 4 mps 734 mmHg 69%
    12:00 +27°C° 1 mm 4 mps 734 mmHg 69%
    13:00 +28°C° 1 mm 5 mps 734 mmHg 68%
    14:00 +28°C° 1 mm 5 mps 734 mmHg 68%
    15:00 +28°C° 0.4 mm 5 mps 734 mmHg 68%
    16:00 +28°C° 0.4 mm 5 mps 734 mmHg 69%
    17:00 +28°C° 0.4 mm 5 mps 734 mmHg 69%
    18:00 +26°C° 0 mm 5 mps 734 mmHg 75%
    19:00 +25°C° 0 mm 5 mps 734 mmHg 80%
    20:00 +23°C° 0 mm 4 mps 734 mmHg 85%
    21:00 +22°C° 0 mm 4 mps 735 mmHg 87%
    22:00 +21°C° 0 mm 4 mps 735 mmHg 89%
    23:00 +21°C° 0 mm 4 mps 735 mmHg 91%

    Tomorrow, 20 July, Friday

    Time Temperature Precipitation Wind Pressure Humidity
    00:00 +20°C° 0 mm 4 mps 735 mmHg 92%
    01:00 +20°C° 0 mm 4 mps 735 mmHg 93%
    02:00 +19°C° 0 mm 4 mps 735 mmHg 94%
    03:00 +19°C° 0 mm 4 mps 735 mmHg 94%
    04:00 +19°C° 0 mm 4 mps 735 mmHg 95%
    05:00 +18°C° 0 mm 4 mps 735 mmHg 95%
    06:00 +20°C° 0 mm 4 mps 735 mmHg 91%
    07:00 +21°C° 0 mm 5 mps 736 mmHg 86%
    08:00 +22°C° 0 mm 5 mps 736 mmHg 82%
    09:00 +23°C° 0 mm 5 mps 736 mmHg 77%
    10:00 +24°C° 0 mm 6 mps 736 mmHg 71%
    11:00 +27°C° 0 mm 6 mps 736 mmHg 66%
    12:00 +27°C° 0 mm 6 mps 736 mmHg 64%
    13:00 +27°C° 0 mm 6 mps 736 mmHg 63%
    14:00 +28°C° 0 mm 6 mps 736 mmHg 61%
    15:00 +28°C° 0.2 mm 6 mps 736 mmHg 63%
    16:00 +27°C° 0.2 mm 6 mps 736 mmHg 65%
    17:00 +27°C° 0.2 mm 6 mps 736 mmHg 68%
    18:00 +26°C° 0.1 mm 6 mps 736 mmHg 73%
    19:00 +23°C° 0.1 mm 5 mps 736 mmHg 78%
    20:00 +22°C° 0.1 mm 4 mps 736 mmHg 84%
    21:00 +22°C° 0 mm 4 mps 736 mmHg 85%
    22:00 +21°C° 0 mm 4 mps 736 mmHg 86%
    23:00 +21°C° 0 mm 5 mps 737 mmHg 88%

    Day after tomorrow, 21 July, Saturday

    Time Temperature Precipitation Wind Pressure Humidity
    00:00 +20°C° 0 mm 5 mps 737 mmHg 88%
    01:00 +20°C° 0 mm 5 mps 737 mmHg 88%
    02:00 +20°C° 0 mm 5 mps 737 mmHg 88%
    03:00 +19°C° 0 mm 5 mps 737 mmHg 89%
    04:00 +19°C° 0 mm 5 mps 737 mmHg 89%
    05:00 +19°C° 0 mm 5 mps 737 mmHg 90%
    06:00 +20°C° 0 mm 5 mps 737 mmHg 87%
    07:00 +21°C° 0 mm 6 mps 737 mmHg 84%
    08:00 +22°C° 0 mm 6 mps 737 mmHg 81%
    09:00 +23°C° 0.2 mm 6 mps 738 mmHg 77%
    10:00 +24°C° 0.2 mm 6 mps 738 mmHg 73%
    11:00 +26°C° 0.2 mm 6 mps 738 mmHg 69%
    12:00 +27°C° 0.6 mm 6 mps 738 mmHg 68%
    13:00 +27°C° 0.6 mm 6 mps 737 mmHg 66%
    14:00 +28°C° 0.6 mm 5 mps 737 mmHg 65%
    15:00 +27°C° 0.2 mm 5 mps 737 mmHg 65%
    16:00 +27°C° 0.2 mm 5 mps 737 mmHg 66%
    17:00 +27°C° 0.2 mm 5 mps 737 mmHg 66%
    18:00 +26°C° 0 mm 4 mps 737 mmHg 72%
    19:00 +23°C° 0 mm 4 mps 738 mmHg 77%
    20:00 +22°C° 0 mm 3 mps 738 mmHg 83%
    21:00 +21°C° 0 mm 2 mps 738 mmHg 85%
    22:00 +21°C° 0 mm 2 mps 738 mmHg 88%
    23:00 +20°C° 0 mm 2 mps 738 mmHg 90%

    22 July, Sunday

    Time Temperature Precipitation Wind Pressure Humidity
    00:00 +19°C° 0 mm 2 mps 738 mmHg 91%
    01:00 +19°C° 0 mm 2 mps 738 mmHg 91%
    02:00 +18°C° 0 mm 2 mps 738 mmHg 92%
    03:00 +18°C° 0 mm 2 mps 738 mmHg 92%
    04:00 +18°C° 0 mm 2 mps 738 mmHg 92%
    05:00 +17°C° 0 mm 2 mps 738 mmHg 92%
    06:00 +19°C° 0 mm 2 mps 738 mmHg 87%
    07:00 +21°C° 0 mm 3 mps 738 mmHg 81%
    08:00 +22°C° 0 mm 3 mps 738 mmHg 75%
    09:00 +25°C° 0 mm 3 mps 738 mmHg 69%
    10:00 +26°C° 0 mm 3 mps 738 mmHg 63%
    11:00 +27°C° 0 mm 3 mps 738 mmHg 58%
    12:00 +28°C° 0 mm 3 mps 738 mmHg 55%
    13:00 +28°C° 0 mm 3 mps 737 mmHg 52%
    14:00 +29°C° 0 mm 3 mps 737 mmHg 49%
    15:00 +29°C° 0 mm 2 mps 737 mmHg 49%
    16:00 +29°C° 0 mm 2 mps 737 mmHg 49%
    17:00 +29°C° 0 mm 2 mps 737 mmHg 49%
    18:00 +27°C° 0 mm 1 mps 737 mmHg 54%
    19:00 +25°C° 0 mm 1 mps 737 mmHg 60%
    20:00 +24°C° 0 mm 1 mps 737 mmHg 65%
    21:00 +23°C° 0 mm 1 mps 737 mmHg 67%
    22:00 +22°C° 0 mm 1 mps 737 mmHg 69%
    23:00 +21°C° 0 mm 2 mps 737 mmHg 71%

    23 July, Monday

    Time Temperature Precipitation Wind Pressure Humidity
    00:00 +21°C° 0.1 mm 1 mps 736 mmHg 73%
    01:00 +21°C° 0.1 mm 1 mps 736 mmHg 75%
    02:00 +20°C° 0.1 mm 1 mps 736 mmHg 77%
    03:00 +20°C° 0.2 mm 1 mps 736 mmHg 79%
    04:00 +20°C° 0.2 mm 1 mps 736 mmHg 81%
    05:00 +19°C° 0.2 mm 1 mps 736 mmHg 83%
    06:00 +21°C° 0.2 mm 1 mps 736 mmHg 79%
    07:00 +21°C° 0.2 mm 2 mps 737 mmHg 75%
    08:00 +24°C° 0.2 mm 2 mps 737 mmHg 71%
    09:00 +25°C° 0.1 mm 2 mps 737 mmHg 66%
    10:00 +26°C° 0.1 mm 2 mps 737 mmHg 61%
    11:00 +28°C° 0.1 mm 2 mps 737 mmHg 57%
    12:00 +28°C° 0.6 mm 2 mps 736 mmHg 55%
    13:00 +29°C° 0.6 mm 2 mps 736 mmHg 54%
    14:00 +29°C° 0.6 mm 2 mps 736 mmHg 53%
    15:00 +29°C° 0.8 mm 2 mps 736 mmHg 56%
    16:00 +28°C° 0.8 mm 2 mps 736 mmHg 59%
    17:00 +28°C° 0.8 mm 2 mps 736 mmHg 62%
    18:00 +26°C° 0.6 mm 1 mps 736 mmHg 68%
    19:00 +25°C° 0.6 mm 1 mps 736 mmHg 74%
    20:00 +23°C° 0.6 mm 1 mps 736 mmHg 80%
    21:00 +23°C° 0.1 mm 1 mps 736 mmHg 82%
    22:00 +21°C° 0.1 mm 2 mps 737 mmHg 84%
    23:00 +20°C° 0.1 mm 2 mps 737 mmHg 85%

    24 July, Tuesday

    Time Temperature Precipitation Wind Pressure Humidity
    00:00 +20°C° 0.1 mm 2 mps 737 mmHg 87%
    01:00 +19°C° 0.1 mm 3 mps 737 mmHg 88%
    02:00 +19°C° 0.1 mm 3 mps 737 mmHg 90%
    03:00 +19°C° 0.4 mm 3 mps 737 mmHg 91%
    04:00 +18°C° 0.4 mm 3 mps 738 mmHg 92%
    05:00 +18°C° 0.4 mm 3 mps 738 mmHg 93%
    06:00 +20°C° 0.1 mm 3 mps 738 mmHg 88%
    07:00 +21°C° 0.1 mm 4 mps 738 mmHg 84%
    08:00 +22°C° 0.1 mm 4 mps 739 mmHg 79%
    09:00 +25°C° 0.2 mm 4 mps 739 mmHg 73%
    10:00 +26°C° 0.2 mm 4 mps 739 mmHg 67%
    11:00 +27°C° 0.2 mm 4 mps 739 mmHg 61%
    12:00 +28°C° 0.3 mm 4 mps 739 mmHg 58%
    13:00 +28°C° 0.3 mm 4 mps 739 mmHg 56%
    14:00 +29°C° 0.3 mm 4 mps 739 mmHg 53%
    15:00 +28°C° 0.1 mm 4 mps 739 mmHg 54%
    16:00 +28°C° 0.1 mm 4 mps 739 mmHg 55%
    17:00 +28°C° 0.1 mm 4 mps 739 mmHg 56%
    18:00 +26°C° 0 mm 3 mps 739 mmHg 61%
    19:00 +25°C° 0 mm 3 mps 739 mmHg 67%
    20:00 +23°C° 0 mm 2 mps 739 mmHg 72%
    21:00 +21°C° 0 mm 2 mps 739 mmHg 73%
    22:00 +21°C° 0 mm 2 mps 740 mmHg 74%
    23:00 +20°C° 0 mm 2 mps 740 mmHg 76%
    Show more